Location: Lombard
(41.8800°N, 88.0080°W)
Time: 03:58:07
(UTC-05:00)

Vanguard 2 Rocket - Pass Details

Date: 27 February 2024
Orbit: 555 x 3307 km, 32.9° (Epoch: 12 April)

Event Time Altitude Azimuth Distance (km) Brightness Sun altitude
Rises 16:17:26 0° 264° (W) 4,645 12.0 13.7°
Reaches altitude 10° 16:20:04 10° 259° (W) 3,959 12.2 13.2°
Maximum altitude 16:31:02 57° 185° (S) 2,736 9.7 11.4°
Drops below altitude 10° 16:48:44 10° 114° (ESE) 6,110 10.7 8.3°
Sets 16:53:58 0° 111° (ESE) 7,257 11.0 7.4°
